Location: Rodanthe
(35.5920°N, 75.4670°W)
Time: 23:00:43
(UTC-04:00)

Daily predictions for brighter satellites

Satellite Brightness Start Highest point End
(mag) Time Altitude Azimuth Time Altitude Azimuth Time Altitude Azimuth
CSL-04 Rocket 4.4 18:39:02 10° S 18:44:20 61° WSW 18:49:36 10° NNW
COSMOS 2428 3.9 18:40:13 10° N 18:44:32 22° ENE 18:48:51 10° ESE
Cosmos 1833 4.3 18:40:35 10° SSW 18:46:18 84° WNW 18:51:59 10° NNE
Cosmos 2322 Rocket 2.9 18:41:13 10° NNW 18:46:44 61° WSW 18:52:15 10° S
Cosmos 2333 Rocket 4.0 18:44:59 10° NNE 18:47:14 12° NE 18:49:29 10° ENE
IRS-1A Rocket 4.4 18:41:50 10° SSE 18:47:40 78° ENE 18:53:35 10° N
Cosmos 2219 4.0 18:43:24 10° SSE 18:48:22 31° ESE 18:53:22 10° NE
CZ-4C R/B 2.7 18:44:15 10° S 18:48:48 35° ESE 18:53:50 10° NE
Cosmos 1500 Rocket 3.5 18:50:57 10° N 18:55:14 59° E 18:59:29 10° SSE
Cosmos 2056 Rocket 4.2 18:50:54 10° NNW 18:56:06 60° WSW 19:01:11 10° S
Abrixas 1.8 18:54:13 10° SW 18:56:20 54° SE 18:58:09 13° ENE
CORIOLIS 4.4 18:51:11 10° S 18:56:33 76° WSW 19:01:58 10° NNW
FENGYUN 3A 4.3 18:52:25 10° SE 18:57:09 32° ENE 19:01:53 10° N
SPOT 3 Rocket 3.7 18:57:14 10° SSE 19:02:14 52° ENE 19:07:17 10° N
Cosmos 468 4.4 18:58:27 10° S 19:03:38 72° ESE 19:08:50 10° NNE
BREEZE-M R/B 3.5 19:05:56 10° S 19:07:53 20° SE 19:09:00 16° E
EO 1 Del DPAF 3.8 19:07:34 10° N 19:11:23 62° WNW 19:15:10 10° SSW
Cosmos 2322 3.7 19:07:30 10° NNW 19:13:13 69° ENE 19:18:52 10° SSE
Meteor 2-1 Rocket 4.5 19:07:39 10° SSW 19:13:25 79° W 19:19:20 10° N
Cosmos 1452 Rocket 3.4 19:08:27 10° NNW 19:13:43 75° ENE 19:18:58 10° SSE
ERS-2 3.5 19:10:42 10° S 19:14:13 42° W 19:17:45 10° NNW
Cosmos 1315 Rocket 2.8 19:10:40 10° N 19:14:44 65° E 19:18:49 10° SSE
Cosmos 2098 Rocket 3.6 19:12:55 10° SSE 19:17:00 45° E 19:22:10 10° NNE
Aureole 2 Rocket 4.1 19:17:13 10° NNE 19:20:13 20° ENE 19:20:31 20° ENE
COSMO-SKYMED 1 3.0 19:16:09 10° N 19:20:28 67° WNW 19:24:46 10° SSW
Sich 1 4.1 19:18:57 10° NNE 19:22:28 23° ENE 19:23:42 21° E
ASTRO E2 3.6 19:18:56 10° WSW 19:22:42 40° S 19:25:19 18° SE
ALOS 2.3 19:18:34 10° SSE 19:23:07 57° ENE 19:27:42 10° N
Cosmos 1726 2.3 19:22:15 10° SSE 19:25:49 47° E 19:29:23 10° NNE
Cosmos 2219 Rocket 3.0 19:21:02 10° N 19:25:50 28° ENE 19:28:19 21° E
Iridium 4 Rocket 3.7 19:21:39 10° S 19:27:04 67° E 19:32:52 10° N
Cosmos 1805 Rocket 3.7 19:29:46 10° N 19:34:02 49° E 19:38:18 10° SSE
SJ-6B 4.4 19:35:42 18° NE 19:35:42 18° NE 19:37:09 10° NNE
SL-24 R/B - RUBIN 2 4.1 19:33:33 10° NW 19:38:11 60° WSW 19:42:25 10° SSE
NOAA 12 4.1 19:33:59 10° SSE 19:39:17 90° NNW 19:44:38 10° NNW
RESURS DK-1 3.6 19:36:22 10° NW 19:40:18 43° WSW 19:44:12 10° S
Cosmos 1666 Rocket 3.9 19:39:02 10° N 19:43:04 37° E 19:43:26 37° E
BREEZE-M DEB (TANK) 4.5 19:27:35 10° WNW 19:45:20 41° N 19:48:19 25° ENE
Cosmos 1821 Rocket 3.9 19:39:17 10° S 19:45:26 85° E 19:51:42 10° N
Cosmos 1934 Rocket 4.0 19:41:07 10° S 19:47:22 66° E 19:53:41 10° NNE
DELTA 2 R/B (1) 3.5 19:41:51 10° WNW 19:47:28 88° SSW 19:50:05 33° ESE
Cosmos 1048 Rocket 4.5 19:42:43 10° SSW 19:47:46 60° WNW 19:52:50 10° N
Cosmos 1000 Rocket 4.4 19:41:57 10° N 19:48:12 85° E 19:54:21 10° S
Atlas Centaur 2 3.1 19:44:42 10° WSW 19:48:53 33° S 19:51:47 20° SE
Cosmos 2333 4.1 19:43:17 10° NNW 19:49:01 72° ENE 19:54:35 11° SSE
Cosmos 1633 Rocket 3.8 19:45:31 10° N 19:48:39 32° NE 19:48:39 32° NE
Cosmos 2239 Rocket 4.5 19:45:55 10° S 19:52:03 85° W 19:58:14 10° N
Gbstr 26 Del rocket 4.2 19:47:43 10° NW 19:52:43 43° NE 19:54:24 35° ENE
Cosmos 44 4.5 19:51:44 10° WSW 19:55:46 36° NW 19:59:46 10° NNE
H-2A R/B 2.6 19:55:43 58° ESE 19:56:14 65° ENE 20:00:07 10° N
In-Cosmos 22 Rocket 4.4 19:54:05 10° N 19:59:39 48° ENE 20:01:27 36° SE
Cosmos 2237 Rocket 3.2 19:55:08 10° N 19:59:13 28° NE 19:59:13 28° NE
Cosmos 2227 Rocket 2.3 19:58:49 10° S 20:04:13 49° ESE 20:04:49 47° E
Thor Agena Rocket 3.8 20:02:15 10° N 20:07:17 65° WNW 20:12:16 10° SSW
BREEZE-M DEB (TANK) 4.4 20:07:14 10° NNW 20:07:22 10° NNW 20:07:22 10° NNW
SL-16 R/B 4.3 20:07:43 10° NNE 20:08:15 11° NNE 20:08:15 11° NNE
Delta 2 Rocket 3.5 20:08:17 10° W 20:11:17 54° W 20:11:17 54° W
Cosmos 1300 3.4 20:13:19 10° SSW 20:17:03 52° W 20:20:01 15° N
Cosmos 2123 Rocket 3.9 20:12:30 10° N 20:18:47 84° E 20:25:05 10° S
Cosmos 1605 Rocket 3.8 20:13:41 10° S 20:19:47 81° E 20:25:53 10° N
Cosmos 1980 4.3 20:18:36 10° N 20:22:46 42° NNE 20:22:46 42° NNE
OAO 1 Rocket 4.3 20:22:27 10° W 20:27:39 83° SW 20:27:39 83° SW
COSMOS 2428 3.6 20:23:35 10° NNW 20:29:01 48° WSW 20:34:15 11° S
USA 267 3.1 20:28:50 52° NE 20:30:38 83° SE 20:37:10 10° SW
Hubble Space Telescope 3.1 20:27:54 10° SW 20:29:13 16° SSW 20:29:13 16° SSW
Cosmos 2333 Rocket 2.1 20:26:32 10° NNW 20:32:18 88° ENE 20:32:29 85° SE
Meteor 2-2 Rocket 4.5 20:30:45 10° SSW 20:36:26 67° W 20:42:04 10° N
CZ-4C R/B 3.8 20:32:46 10° WSW 20:37:17 29° NW 20:41:54 12° N
Cosmos 2297 Rocket 2.8 20:36:08 10° SSW 20:39:56 45° SSW 20:39:56 45° SSW
Resurs 01 Rocket 4.3 20:47:32 10° N 20:47:32 10° N 20:47:36 10° N
NOSS 0 Rocket 4.1 20:48:55 10° NNW 20:54:40 68° W 20:54:40 68° W
Cosmos 2219 Rocket 3.5 21:04:45 10° NW 21:09:45 34° WSW 21:10:07 34° WSW
Cosmos 2237 Rocket 4.4 21:39:02 10° NW 21:41:05 21° NW 21:41:05 21° NW
